Location: Prostejov
(49.4670°N, 17.1170°E)
Time: 11:13:58
(UTC+02:00)

ISS - Pass Details

Date: 19 May 2021
Orbit: 417 x 422 km, 51.6° (Epoch: 13 June)

Event Time Altitude Azimuth Distance (km) Brightness Sun altitude
Rises 23:43:09 0° 282° (WNW) 2,367 0.4 -19.1°
Reaches altitude 10° 23:45:16 10° 286° (WNW) 1,504 -0.6 -19.2°
Maximum altitude 23:48:37 61° 7° (N) 481 -3.3 -19.3°
Enters shadow 23:50:21 26° 81° (E) 881 -2.2 -19.4°
